カタログに戻る

STARLINK-37893

運用中通信SSO
NORAD 69486·PAYLOAD·🇺🇸 United States

打ち上げ Jun 11, 2026 から Vandenberg Space Force Base

Loading…

次のパス (今後24時間)

TLE

最新Source: CelesTrak SupGP

元期: Sep 15, 2026, 02:59 UTC

1 69486C 26131J   26258.12479167 -.00051769  00000+0 -16072-2 0  2581
2 69486  97.2839 279.0538 0001532  90.7122 242.7911 15.33462640    10

AllMySatでSTARLINK-37893をリアルタイム追跡

Download on the App Store